Regional Weather Roundup
Issued by NWS

Home | Current Version | Previous Version | Graphics & Text | Print | Product List | Glossary Off
Versions: 1 2 3 4 5 6 7 8 9 10 11 12 13 14 15 16 17 18 19 20 21 22 23 24 25 26 27 28 29 30 31 32 33 34 35 36 37 38 39 40 41 42 43 44 45 46 47 48 49 50

000
ASUS43 KMPX 172310
RWRMN
WEATHER ROUNDUP FOR MINNESOTA
NATIONAL WEATHER SERVICE TWIN CITIES/CHANHASSEN MN
600 PM CDT THU AUG 17 2017


NOTE: "FAIR" INDICATES FEW OR NO CLOUDS BELOW 12,000 FEET WITH NO
SIGNIFICANT WEATHER AND/OR OBSTRUCTIONS TO VISIBILITY. N/A MEANS
CURRENT SKY AND/OR WEATHER CONDITIONS ARE NOT AVAILABLE.

MNZ060>063-068>070-180000-
   Twin Cities Metro

CITY           SKY/WX    TMP DP  RH WIND       PRES   REMARKS
TWIN CITIES    CLOUDY    72  61  68 NW16      29.77R
ST PAUL        CLOUDY    72  63  73 NW17G25   29.76R
CRYSTAL        CLOUDY    71  59  65 NW13      29.77R
BLAINE         PTSUNNY   72  64  78 NW15G23   29.77R
LAKEVILLE      PTSUNNY   72  63  73 NW13G20   29.78R
EDEN PRAIRIE   CLOUDY    72  62  71 NW16G25   29.77R
SOUTH ST PAUL  CLOUDY    72  61  69 NW13G28   29.76R
LAKE ELMO      CLOUDY    70  63  78 NW16G22   29.76R
$$
MNZ001>005-007-008-013>017-022>024-027-028-180000-
   Northwest Minnesota

CITY           SKY/WX    TMP DP  RH WIND       PRES   REMARKS
BEMIDJI        SUNNY     71  57  60 N12G17    29.84S
HALLOCK        SUNNY     81  54  39 NW7       29.81S
ROSEAU         MOSUNNY   79  59  50 NW7       29.82S
WARROAD        MOSUNNY   75  64  69 E3        29.82R
THIEF RVR FALL MOSUNNY   78  56  46 NW13G20   29.84S
CROOKSTON      MOSUNNY   77  57  50 N9        29.84S
FOSSTON        SUNNY     79  61  53 N9        29.84S
DETROIT LAKES  SUNNY     73  57  56 NW8       29.86R
MOORHEAD       SUNNY     75  61  60 NW9       29.85R
PARK RAPIDS    MOSUNNY   74  57  55 N10       29.83R
MAHNOMEN       FAIR      75  57  53 N10       29.84S
$$
MNZ006-009>011-018-025>026-180000-
   North Central Minnesota

CITY           SKY/WX    TMP DP  RH WIND       PRES   REMARKS
BAUDETTE       CLOUDY    73  57  57 NW7       29.81S
FLAG ISLAND    SUNNY     75  54  46 NW6       29.80S
INTL FALLS     PTSUNNY   67  59  75 N8        29.81R
WASKISH        PTSUNNY   72  57  60 N6        29.82S
BIG FORK       PTSUNNY   64  61  88 N3        29.82R
LONGVILLE      PTSUNNY   68  59  73 NW9       29.82R
GRAND RAPIDS   CLOUDY    64  59  83 N10       29.82R
CRANE LAKE     CLOUDY    63  59  88 N6        29.80R
ORR            CLOUDY    63  57  82 NW5       29.77S
COOK           CLOUDY    63  61  94 NW6       29.79R
WALKER         FAIR      69  57  66 N9        29.83S
$$
MNZ012-019>021-037-180000-
   Northeast Minnesota

CITY           SKY/WX    TMP DP  RH WIND       PRES   REMARKS
DULUTH         CLOUDY    62  61  96 NW13      29.74R
ELY            DRIZZLE   61  59  94 N6        29.75R
HIBBING        CLOUDY    62  59  90 N12G22    29.78R
EVELETH        CLOUDY    63  58  84 NW13      29.78R
DULUTH HARBOR  CLOUDY    66  63  88 NW12G17   29.72R
TWO HARBORS    LGT RAIN  66  61  82 N8        29.70R
GRAND MARAIS     N/A     65  60  84 VRB3      29.63R
G MARAIS ARPRT DRIZZLE   57  54  88 N13G20    29.68R
$$
MNZ029>031-032-039>041-046>048-054>057-064-180000-
   West Central Minnesota

CITY           SKY/WX    TMP DP  RH WIND       PRES   REMARKS
FERGUS FALLS   SUNNY     75  61  60 NW8       29.83S
WHEATON        SUNNY     75  57  53 NW10      29.87S
MORRIS         SUNNY     75  63  64 NW14G20   29.84S
ALEXANDRIA     MOSUNNY   75  60  59 NW10      29.86R
ELBOW LAKE     FAIR      73  61  65 W14       29.85S HAZE
WADENA         SUNNY     73  57  56 NW10      29.84R
GLENWOOD       SUNNY     75  61  60 NW12      29.85R
APPLETON       SUNNY     75  61  60 NW10      29.85R
BENSON         SUNNY     77  61  57 N13G20    29.85S
ORTONVILLE     SUNNY     75  59  57 MISG      29.86R
MADISON        SUNNY     79  61  53 NW9       29.86R
WILLMAR        FAIR      75  63  64 NW13      29.85R
$$
MNZ033>034-036-042>043-049>051-058-059-180000-
   Central Minnesota

CITY           SKY/WX    TMP DP  RH WIND       PRES   REMARKS
ST CLOUD       PTSUNNY   72  62  71 N14G23    29.80R
SAUK CENTRE    FAIR      73  60  63 NW14G20   29.83S
PAYNESVILLE    MOSUNNY   74  62  66 NW15      29.83R
AITKIN         CLOUDY    66  61  82 NW6       29.79R
PINE RIVER     MOSUNNY   66  55  68 N15       29.86R
BRAINERD       CLOUDY    70  60  70 N14       29.81R
STAPLES        SUNNY     72  57  60 N8        29.83R
LONG PRAIRIE   FAIR      72  59  64 W12       29.84R
LITTLE FALLS   MOSUNNY   70  55  60 NW5G17    29.82R
LITCHFIELD     MOSUNNY   75  63  64 NW16G22   29.82S
BUFFALO        CLOUDY    70  60  71 NW9       29.81S
MAPLE LAKE     PTSUNNY   72  64  76 NW9       29.82R
HUTCHINSON     MOSUNNY   74  64  69 NW9G16    29.82S
$$
MNZ037-044-045-052-053-180000-
   East Central Minnesota

CITY           SKY/WX    TMP DP  RH WIND       PRES   REMARKS
PRINCETON      CLOUDY    72  63  73 NW8G20    29.79R
MORA           CLOUDY    66  59  77 NW16      29.79R
RUSH CITY      RAIN      68  61  77 NW9G21    29.76R
MOOSE LAKE     CLOUDY    64  59  82 NW12G18   29.75R
HINCKLEY       CLOUDY    68  61  77 NW10G16   29.77R
CLOQUET        CLOUDY    63  59  88 NW14G21   29.76R
MCGREGOR       CLOUDY    64  59  82 N10       29.79S
$$
MNZ071>073-080-081-089-090-097-098-180000-
   Southwest Minnesota

CITY           SKY/WX    TMP DP  RH WIND       PRES   REMARKS
MONTEVIDEO     SUNNY     79  73  83 N9G16     29.85S
GRANITE FALLS  SUNNY     76  63  64 NW13      29.86S
CANBY          SUNNY     78  55  45 NW7       29.88R
MARSHALL       SUNNY     75  59  57 NW14      29.87R
REDWOOD FALLS  MOSUNNY   75  61  61 NW14G22   29.83R
OLIVIA         SUNNY     73  63  68 NW14      29.83R
PIPESTONE      SUNNY     77  59  53 NW10      29.90S
WINDOM         SUNNY     75  61  60 NW13G21   29.87R
WORTHINGTON    SUNNY     76  60  57 NW9       29.89R
JACKSON        SUNNY     73  61  64 NW14      29.88R
TRACY          SUNNY     75  61  61 NW8       29.87R
SLAYTON        SUNNY     76  54  45 NW9G16    29.89S
$$
MNZ065>067-074>077-082>085-091>093-180000-
   South Central Minnesota

CITY           SKY/WX    TMP DP  RH WIND       PRES   REMARKS
MANKATO        CLOUDY    72  64  76 NW13      29.82R
NEW ULM        MOSUNNY   73  63  68 NW13G23   29.82R
ST JAMES       MOSUNNY   73  63  68 W13       29.85S
FAIRMONT       PTSUNNY   73  63  70 NW15G21   29.86R
GLENCOE        MOSUNNY   74  66  75 NW10G20   29.80S
FARIBAULT      RAIN      70  64  83 W15G21    29.80R
OWATONNA       PTSUNNY   72  64  78 W14G20    29.80R
WASECA         CLOUDY    72  64  78 W10G18    29.82R
ALBERT LEA     PTSUNNY   73  64  73 NW8       29.82R
$$
MNZ078>079-086>088-094>096-180000-
   Southeast Minnesota

CITY           SKY/WX    TMP DP  RH WIND       PRES   REMARKS
ROCHESTER      PTSUNNY   72  64  76 NW20      29.77R
RED WING       CLOUDY    72  61  68 NW9       29.73R
STANTON        CLOUDY    73  63  71 NW12      29.76R
DODGE CENTER   CLOUDY    70  63  78 W15       29.78R
WINONA         CLOUDY    70  61  73 NW7       29.73R
AUSTIN         CLOUDY    72  63  73 W10       29.80R
PRESTON        CLOUDY    71  63  74 NW17G23   29.78R
$$
ABBREVIATIONS USED IN REMARKS
   TC - TEMPERATURES IN CELSIUS
  WCI - WIND CHILL INDEX
   HX - HEAT INDEX
  VSB - VISIBILITY
$$




USA.gov is the U.S. government's official web portal to all federal, state and local government web resources and services.